Sydney, Australia

4:33 PM AEDT on March 24, 2017 (GMT +1100)
Kingsford Smith International

Weather History for YSSY - June, 2013

Change the Weather History Date:

Tuesday, June 11, 2013

  Actual Average Record
Temperature  
Mean Temperature 58 °F -  
Max Temperature 68 °F 63 °F 69 °F (2005)
Min Temperature 49 °F 46 °F 44 °F (1997)
Degree Days  
Heating Degree Days 6    
Growing Degree Days 8 (Base 50)    
Moisture  
Dew Point 49 °F    
Average Humidity 76    
Maximum Humidity 100    
Minimum Humidity 34    
Precipitation  
Precipitation 0.00 in 0.13 in - ()
Sea Level Pressure  
Sea Level Pressure 30.08 in    
Wind  
Wind Speed 7 mph ()    
Max Wind Speed 10 mph    
Max Gust Speed -    
Visibility 5.1 miles    
Events Fog    
Averages and records for this station are not official NWS values.
T = Trace of Precipitation, MM = Missing Value Source: Averaged Metar Reports

Daily Weather History Graph

Daily Weather History Graph

Search for Another Location

Airport or City:

Trip Planner

Search our weather history database for the weather conditions in past years. The results will help you decide how hot, cold, wet, or windy it might be!

Date:

Astronomy

Jun. 11, 2013 Rise Set
Actual Time 6:56 AM AEST 4:52 PM AEST
Civil Twilight 6:29 AM AEST 5:20 PM AEST
Nautical Twilight 5:58 AM AEST 5:51 PM AEST
Astronomical Twilight 5:27 AM AEST 6:22 PM AEST
Moon 8:31 AM AEST (6/11) 7:11 PM AEST (6/11)
Length of Visible Light 10h 51m
Length of Day
9h 55m
Waxing Crescent, 5% of the Moon is Illuminated
Jun 11
Waxing Crescent
Jun 17
First Quarter
Jun 23
Full
Jun 30
Last Quarter
Jul 8
New

Hourly Weather History & Observations

Time (AEST) Temp. Dew Point Humidity Pressure Visibility Wind Dir Wind Speed Gust Speed Precip Events Conditions
12:00 AM 53 °F 52 °F 97% 30.10 in 0 mi NW 8.1 mph - - Fog Heavy Fog
12:00 AM 53.6 °F 51.8 °F 94% 30.09 in 0.1 mi NW 8.1 mph - N/A Fog Fog
1:00 AM 54 °F 53 °F 97% 30.10 in - NW 8.1 mph - -  
1:00 AM 53.6 °F 53.6 °F 100% 30.09 in 0.2 mi NW 8.1 mph - N/A Fog Fog
1:30 AM 53.6 °F 53.6 °F 100% 30.09 in 0.2 mi NNW 6.9 mph - N/A Fog Fog
2:00 AM 53.6 °F 53.6 °F 100% 30.06 in 0.2 mi NW 9.2 mph - N/A Fog Fog
2:30 AM 53.6 °F 51.8 °F 94% 30.09 in 0.2 mi WNW 10.4 mph - N/A Fog Fog
3:30 AM 51.8 °F 51.8 °F 100% 30.06 in 0.3 mi NW 9.2 mph - N/A Fog Fog
3:40 AM 51.8 °F 51.8 °F 100% 30.06 in 0.7 mi NW 8.1 mph - N/A   Mist
4:00 AM 51.8 °F 51.8 °F 100% 30.06 in 0.9 mi NNW 6.9 mph - N/A   Mist
4:30 AM 51.8 °F 51.8 °F 100% 30.06 in 0.9 mi NW 8.1 mph - N/A   Mist
4:52 AM 51.8 °F 50.0 °F 94% 30.06 in 2.5 mi NW 8.1 mph - N/A   Mostly Cloudy
5:00 AM 51.8 °F 50.0 °F 94% 30.06 in - NW 9.2 mph - N/A   Scattered Clouds
5:12 AM 51.8 °F 50.0 °F 94% 30.09 in 4.3 mi NW 9.2 mph - N/A   Partly Cloudy
5:26 AM 50.0 °F 50.0 °F 100% 30.09 in 6.2 mi NW 8.1 mph - N/A   Partly Cloudy
5:30 AM 50.0 °F 50.0 °F 100% 30.09 in 6.2 mi WNW 8.1 mph - N/A   Partly Cloudy
6:00 AM 50 °F 48 °F 91% 30.10 in 6 mi NW 5.8 mph - -   Mist
6:00 AM 50.0 °F 48.2 °F 94% 30.09 in 5.0 mi NW 5.8 mph - N/A   Scattered Clouds
6:16 AM 50.0 °F 48.2 °F 94% 30.09 in 5.0 mi NW 6.9 mph - N/A   Scattered Clouds
6:30 AM 50.0 °F 48.2 °F 94% 30.09 in 0.3 mi NW 9.2 mph - N/A Fog Fog
6:49 AM 50.0 °F 48.2 °F 94% 30.09 in 0.3 mi NW 9.2 mph - N/A Fog Fog
6:57 AM 50.0 °F 48.2 °F 94% 30.09 in 0.3 mi NW 10.4 mph - N/A Fog Fog
7:00 AM 51 °F 49 °F 92% 30.12 in - NW 10.4 mph - -  
7:00 AM 51.8 °F 50.0 °F 94% 30.09 in 0.3 mi NW 10.4 mph - N/A Fog Fog
7:10 AM 51.8 °F 50.0 °F 94% 30.09 in 0.5 mi NW 9.2 mph - N/A Fog Fog
7:20 AM 50.0 °F 48.2 °F 94% 30.12 in 1.9 mi NW 9.2 mph - N/A   Mostly Cloudy
7:30 AM 50.0 °F 48.2 °F 94% 30.12 in 3.7 mi WNW 8.1 mph - N/A   Mostly Cloudy
7:45 AM 50.0 °F 48.2 °F 94% 30.12 in 3.7 mi WNW 9.2 mph - N/A Fog Fog
8:00 AM 51.8 °F 48.2 °F 88% 30.12 in 3.7 mi WNW 9.2 mph - N/A   Scattered Clouds
8:30 AM 53.6 °F 48.2 °F 82% 30.12 in 6.2 mi NW 9.2 mph - N/A   Partly Cloudy
9:00 AM 56 °F 48 °F 67% 30.15 in 12 mi NW 10.4 mph - -   Haze
9:00 AM 55.4 °F 48.2 °F 77% 30.12 in 6.2 mi NW 10.4 mph - N/A   Partly Cloudy
9:30 AM 57.2 °F 50.0 °F 77% 30.12 in 6.2 mi NW 9.2 mph - N/A   Partly Cloudy
10:00 AM 59 °F 49 °F 62% 30.15 in - NNW 6.9 mph - -  
10:00 AM 59.0 °F 50.0 °F 72% 30.12 in - NNW 6.9 mph - N/A   Clear
10:30 AM 60.8 °F 50.0 °F 68% 30.12 in - NNW 9.2 mph - N/A   Clear
11:00 AM 62.6 °F 50.0 °F 63% 30.12 in 6.2 mi NNW 9.2 mph - N/A   Partly Cloudy
11:30 AM 64.4 °F 48.2 °F 56% 30.09 in 6.2 mi NW 9.2 mph - N/A   Scattered Clouds
12:00 PM 67 °F 48 °F 40% 30.10 in 19 mi NW 9.2 mph - -   Partly Cloudy
12:00 PM 66.2 °F 48.2 °F 52% 30.09 in 6.2 mi NW 9.2 mph - N/A   Scattered Clouds
12:30 PM 66.2 °F 46.4 °F 49% 30.06 in 6.2 mi NW 9.2 mph - N/A   Scattered Clouds
1:00 PM 68 °F 46 °F 35% 30.08 in - WNW 9.2 mph - -  
1:00 PM 68.0 °F 46.4 °F 46% 30.06 in 6.2 mi WNW 9.2 mph - N/A   Scattered Clouds
1:30 PM 66.2 °F 46.4 °F 49% 30.04 in 6.2 mi West 5.8 mph - N/A   Scattered Clouds
2:00 PM 68.0 °F 44.6 °F 43% 30.04 in 6.2 mi NW 6.9 mph - N/A   Mostly Cloudy
3:00 PM 67 °F 45 °F 34% 30.05 in 19 mi West 5.8 mph - -   Partly Cloudy
3:00 PM 66.2 °F 44.6 °F 46% 30.04 in 6.2 mi West 5.8 mph - N/A   Mostly Cloudy
3:30 PM 66.2 °F 46.4 °F 49% 30.04 in 6.2 mi West 4.6 mph - N/A   Mostly Cloudy
4:00 PM 67 °F 46 °F 36% 30.05 in - WNW 4.6 mph - -  
4:00 PM 66.2 °F 46.4 °F 49% 30.04 in 6.2 mi WNW 4.6 mph - N/A   Mostly Cloudy
4:30 PM 66.2 °F 46.4 °F 49% 30.04 in - NNW 4.6 mph - N/A   Clear
5:00 PM 64.4 °F 46.4 °F 52% 30.04 in - North 3.5 mph - N/A   Clear
5:30 PM 64.4 °F 46.4 °F 52% 30.04 in - North 3.5 mph - N/A   Clear
6:00 PM 62 °F 50 °F 54% 30.06 in 19 mi NNE 5.8 mph - -   Partly Cloudy
6:00 PM 62.6 °F 50.0 °F 63% 30.04 in 6.2 mi NNE 5.8 mph - N/A   Mostly Cloudy
6:30 PM 60.8 °F 50.0 °F 68% 30.04 in - NE 2.3 mph - N/A   Clear
7:00 PM 60 °F 51 °F 64% 30.07 in - East 1.2 mph - -  
7:00 PM 60.8 °F 51.8 °F 72% 30.06 in - East 1.2 mph - N/A   Clear
7:30 PM 59.0 °F 51.8 °F 77% 30.06 in - Calm Calm - N/A   Clear
8:00 PM 57.2 °F 51.8 °F 82% 30.06 in - Calm Calm - N/A   Clear
8:30 PM 59.0 °F 51.8 °F 77% 30.06 in - South 1.2 mph - N/A   Clear
9:00 PM 59 °F 52 °F 70% 30.07 in 19 mi SW 4.6 mph - -   Partly Cloudy
9:00 PM 59.0 °F 51.8 °F 77% 30.06 in - SW 4.6 mph - N/A   Clear
9:30 PM 59.0 °F 51.8 °F 77% 30.06 in - WNW 4.6 mph - N/A   Clear
10:00 PM 57 °F 51 °F 74% 30.07 in - NW 6.9 mph - -  
10:00 PM 57.2 °F 51.8 °F 82% 30.06 in 6.2 mi NW 6.9 mph - N/A   Scattered Clouds
10:30 PM 57.2 °F 50.0 °F 77% 30.06 in 6.2 mi NW 8.1 mph - N/A   Partly Cloudy
11:00 PM 57.2 °F 50.0 °F 77% 30.06 in 6.2 mi North 6.9 mph - N/A   Partly Cloudy
11:30 PM 55.4 °F 50.0 °F 82% 30.04 in - NNW 5.8 mph - N/A   Clear